[[{"header":{"parameterUnit":"m.s-1","parameterCategory":1,"la1":30.2991,"la2":30.254,"lo1":-89.0895,"lo2":-89.0444,"dy":0.0017,"dx":0.0017,"nx":28,"ny":28,"refTime":"2025-03-05T03:00:00:Z","depth":0,"parameterNumber":2,"parameterNumberName":"U-component_of_WINDS"},"data":[0,0,0,0,0,0,0,0,0,0,0,0,0,0,0,0,0,0,0,0,0,0,0,0,0,0,0,0,0,0,0,0,0,0,0,0,0,0,0,0,0,0,0,0,0,0,0,0,0,0,0,0,0,0,0,0,0,0,1.8187,1.8187,0,1.8239,1.824,1.824,1.8251,1.825,1.825,1.8249,1.8304,1.8305,1.8307,0,0,0,0,0,0,0,0,0,0,0,0,0,1.8096,1.8098,1.8187,1.8187,1.8188,1.8239,1.824,1.8241,1.8251,1.825,1.825,1.8249,1.8303,1.8305,1.8307,0,0,0,0,0,0,0,0,0,0,0,0,0,1.8141,1.8098,1.8186,1.8199,1.8201,1.8239,1.824,1.8241,1.8251,1.825,1.8249,1.8249,1.8302,1.8305,1.8308,1.8337,0,0,1.8316,1.8317,0,0,0,0,0,0,0,0,1.8138,1.8144,1.8197,1.8198,1.82,1.8238,1.8228,1.8273,1.8251,1.8232,1.8249,1.8249,1.8282,1.8286,1.8298,1.834,1.8342,1.8316,1.8318,1.8319,1.832,0,0,0,0,0,0,0,1.8135,1.8142,1.8207,1.8197,1.82,1.8203,1.8208,1.8236,1.826,1.8233,1.8234,1.824,1.8283,1.8295,1.8299,1.8343,1.8316,1.8319,1.832,1.8321,1.8413,1.8414,0,0,0,0,0,0,1.8129,1.8139,1.8206,1.8209,1.8167,1.8205,1.8211,1.8226,1.826,1.8264,1.8241,1.8241,1.8291,1.8296,1.8301,1.8339,1.8319,1.8322,1.8323,1.8412,1.8413,1.8414,0,0,0,0,0,0,1.8127,1.8135,1.8204,1.8174,1.8183,1.8207,1.8224,1.8228,1.824,1.8265,1.8269,1.8249,1.829,1.8297,1.8328,1.8341,1.8323,1.8325,1.8411,1.8412,1.8413,1.8413,0,0,0,0,0,0,1.8125,1.8135,1.8146,1.8174,1.8185,1.823,1.8225,1.8229,1.8244,1.8245,1.8274,1.8278,1.829,1.8324,1.8331,1.8344,1.8328,1.841,1.8412,1.8413,1.8412,1.8414,1.8416,0,0,0,0,0,1.8122,1.8143,1.8146,1.8154,1.8199,1.823,1.8236,1.825,1.8245,1.8257,1.8274,1.8277,1.8338,1.8327,1.8335,1.8349,1.8409,1.8411,1.8413,1.8411,1.8414,1.8416,0,0,0,0,0,0,1.8115,1.8147,1.8151,1.8182,1.8204,1.8232,1.8247,1.8252,1.8275,1.8274,1.8291,1.8297,1.8327,1.8341,1.8329,1.838,1.8374,1.8377,1.837,1.8372,1.8374,1.837,1.833,0,0,0,0,0,1.8117,1.814,1.8167,1.8192,1.8202,1.8223,1.8237,1.8246,1.8269,1.8278,1.8296,1.8318,1.8343,1.8358,1.8382,1.8415,1.8421,1.8428,1.843,1.8431,1.8434,1.8453,1.8457,1.842,1.842,1.842,0,0,1.8122,1.8142,1.8155,1.8191,1.8209,1.8232,1.823,1.8255,1.8272,1.8281,1.8312,1.8327,1.8352,1.8385,1.84,1.8397,1.8446,1.8434,1.8435,1.8437,1.8456,1.8459,1.8462,1.8421,1.8421,1.842,0,0,1.8143,1.816,1.8183,1.8201,1.8228,1.8242,1.8247,1.8275,1.8285,1.8317,1.8324,1.8346,1.8387,1.8405,1.842,1.8449,1.8454,1.8456,1.8466,1.8485,1.8488,1.849,1.8501,1.8505,1.8459,1.8459,1.8459,0,1.8145,1.818,1.8195,1.8219,1.8235,1.8245,1.8269,1.8286,1.8319,1.833,1.8326,1.8379,1.8397,1.8434,1.8442,1.8453,1.8461,1.8453,1.8486,1.8489,1.8492,1.8502,1.8506,1.8459,1.8459,1.8459,1.8459,0,1.8183,1.8207,1.8223,1.8255,1.8273,1.8297,1.8316,1.8332,1.834,1.8354,1.8386,1.8408,1.8437,1.8447,1.8454,1.8485,1.8483,1.8483,1.8476,1.8495,1.8506,1.851,1.846,1.846,1.8459,1.8459,0,0,1.82,1.824,1.8246,1.8261,1.8292,1.8311,1.8336,1.8365,1.8379,1.8402,1.8424,1.8459,1.8459,1.8476,1.8486,1.8502,1.8525,1.85,1.8501,1.8504,1.8562,1.8562,1.8566,1.8528,1.8529,1.853,1.856,0,1.8224,1.8269,1.8284,1.8322,1.8345,1.8355,1.8377,1.8399,1.8413,1.8435,1.8451,1.8476,1.8474,1.8485,1.8501,1.8519,1.8537,1.8517,1.8549,1.855,1.8543,1.8571,1.8571,1.8599,1.8564,1.8564,1.8565,0,1.8259,1.8283,1.8323,1.8352,1.8362,1.8382,1.8409,1.843,1.8455,1.8465,1.8484,1.8493,1.8521,1.8513,1.8551,1.8538,1.8552,1.8563,1.8564,1.8568,1.8559,1.8576,1.8607,1.8612,1.8571,1.8571,1.857,0,1.8268,1.831,1.834,1.8353,1.8387,1.84,1.8415,1.844,1.8456,1.8481,1.8492,1.8519,1.8534,1.8555,1.8572,1.8565,1.8609,1.8603,1.8618,1.8618,1.8627,1.8626,1.8661,1.8636,1.8636,1.8636,1.8636,0,1.8294,1.8318,1.8345,1.8363,1.8391,1.8408,1.8435,1.845,1.8472,1.8494,1.8505,1.8525,1.8546,1.8569,1.8582,1.8612,1.8619,1.8628,1.8631,1.8627,1.8626,1.8636,1.8635,1.8637,1.8636,1.8636,1.8636,0,1.8309,1.8327,1.8361,1.8391,1.8399,1.8418,1.8444,1.8463,1.8478,1.8506,1.8513,1.8537,1.8565,1.8584,1.8619,1.8628,1.8661,1.8664,1.8653,1.8655,1.8669,1.8668,1.8712,1.8719,1.8689,1.8689,1.8689,0,1.8324,1.8343,1.8376,1.8391,1.8407,1.8431,1.8448,1.8466,1.8484,1.8514,1.8529,1.8558,1.8582,1.8627,1.8648,1.8675,1.8679,1.8693,1.8683,1.8679,1.868,1.8679,1.8681,1.8694,1.8695,1.8695,1.8695,0,1.835,1.8359,1.8383,1.8411,1.8431,1.8454,1.8476,1.8489,1.851,1.853,1.8559,1.8577,1.8615,1.8643,1.8673,1.8689,1.8696,1.8698,1.8703,1.8699,1.8692,1.8697,1.8657,1.8697,1.8696,1.8696,1.8696,1.8696,1.8366,1.8384,1.841,1.8437,1.8456,1.8477,1.8497,1.8514,1.8539,1.857,1.858,1.861,1.8636,1.8677,1.8693,1.8718,1.8716,1.8724,1.8726,1.8727,1.8727,1.8688,1.8723,1.8723,1.8723,1.8723,1.8723,0,1.8393,1.841,1.8435,1.8467,1.8488,1.8493,1.8519,1.8537,1.8563,1.8587,1.8611,1.8644,1.8673,1.8696,1.8725,1.8741,1.8745,1.8748,1.8747,1.8751,1.8727,1.872,1.8744,1.8744,1.8744,1.8744,1.8744,1.8744,1.8409,1.844,1.8452,1.8492,1.851,1.854,1.8554,1.8574,1.8593,1.8631,1.8654,1.8669,1.8693,1.8725,1.8751,1.8757,1.8768,1.877,1.8777,1.8755,1.8752,1.875,1.8743,1.8773,1.8773,1.8799,1.88,1.88]},{"header":{"parameterUnit":"m.s-1","parameterCategory":1,"la1":30.2991,"la2":30.254,"lo1":-89.0895,"lo2":-89.0444,"dy":0.0017,"dx":0.0017,"nx":28,"ny":28,"refTime":"2025-03-05T03:00:00:Z","depth":0,"parameterNumber":3,"parameterNumberName":"V-component_of_WINDS"},"data":[0,0,0,0,0,0,0,0,0,0,0,0,0,0,0,0,0,0,0,0,0,0,0,0,0,0,0,0,0,0,0,0,0,0,0,0,0,0,0,0,0,0,0,0,0,0,0,0,0,0,0,0,0,0,0,0,0,0,-2.1114,-2.1115,0,-2.1206,-2.1207,-2.1208,-2.1248,-2.1248,-2.1248,-2.1248,-2.1339,-2.1341,-2.1344,0,0,0,0,0,0,0,0,0,0,0,0,0,-2.0974,-2.0976,-2.1114,-2.1115,-2.1117,-2.1206,-2.1207,-2.1208,-2.1248,-2.1248,-2.1248,-2.1248,-2.1338,-2.1341,-2.1344,0,0,0,0,0,0,0,0,0,0,0,0,0,-2.1047,-2.0977,-2.1114,-2.1147,-2.1151,-2.1205,-2.1207,-2.1209,-2.1248,-2.1248,-2.1248,-2.1248,-2.1337,-2.1341,-2.1344,-2.1372,0,0,-2.1356,-2.1358,0,0,0,0,0,0,0,0,-2.1043,-2.1052,-2.1141,-2.1145,-2.115,-2.1216,-2.1191,-2.1263,-2.1248,-2.1211,-2.1248,-2.1248,-2.1298,-2.1305,-2.1322,-2.1376,-2.138,-2.1356,-2.1359,-2.136,-2.1362,0,0,0,0,0,0,0,-2.1038,-2.1048,-2.115,-2.1143,-2.1148,-2.1158,-2.1168,-2.1205,-2.1254,-2.1214,-2.1218,-2.1228,-2.13,-2.1319,-2.1325,-2.1381,-2.1356,-2.136,-2.1362,-2.1364,-2.1465,-2.1466,0,0,0,0,0,0,-2.1027,-2.1044,-2.1148,-2.1153,-2.1095,-2.116,-2.1172,-2.1194,-2.1254,-2.1263,-2.1228,-2.123,-2.1312,-2.132,-2.1328,-2.1366,-2.136,-2.1364,-2.1366,-2.1465,-2.1465,-2.1466,0,0,0,0,0,0,-2.1024,-2.1036,-2.1144,-2.11,-2.1114,-2.1163,-2.1188,-2.1196,-2.1215,-2.1264,-2.1273,-2.1238,-2.1312,-2.1323,-2.1362,-2.137,-2.1366,-2.1369,-2.1464,-2.1465,-2.1466,-2.1441,0,0,0,0,0,0,-2.102,-2.1035,-2.1045,-2.1099,-2.1116,-2.1176,-2.1189,-2.1198,-2.1222,-2.1225,-2.1276,-2.1284,-2.1313,-2.1356,-2.1365,-2.1375,-2.1372,-2.1464,-2.1465,-2.1465,-2.1442,-2.1441,-2.1441,0,0,0,0,0,-2.1015,-2.1034,-2.1046,-2.1058,-2.1131,-2.1176,-2.1186,-2.1219,-2.1222,-2.1234,-2.1266,-2.1283,-2.1367,-2.1359,-2.137,-2.1382,-2.1463,-2.1464,-2.1465,-2.1442,-2.1441,-2.1441,0,0,0,0,0,0,-2.0978,-2.1041,-2.1055,-2.1092,-2.1129,-2.1183,-2.1198,-2.1217,-2.1252,-2.1253,-2.1292,-2.1303,-2.1339,-2.1364,-2.1354,-2.1413,-2.1417,-2.142,-2.1395,-2.1395,-2.1394,-2.1388,-2.1375,0,0,0,0,0,-2.0974,-2.1006,-2.106,-2.1087,-2.1105,-2.1148,-2.1169,-2.1192,-2.1231,-2.1246,-2.1281,-2.1318,-2.1353,-2.1375,-2.141,-2.1445,-2.1458,-2.1459,-2.1458,-2.1457,-2.146,-2.1483,-2.1485,-2.1469,-2.1469,-2.1469,0,0,-2.0966,-2.1005,-2.1023,-2.1081,-2.1112,-2.1145,-2.1161,-2.1194,-2.1219,-2.1251,-2.1291,-2.1318,-2.1361,-2.1399,-2.1418,-2.1421,-2.1467,-2.1459,-2.1458,-2.1461,-2.1484,-2.1486,-2.1487,-2.1469,-2.1469,-2.1469,0,0,-2.097,-2.1001,-2.1029,-2.1061,-2.1108,-2.1137,-2.1144,-2.1196,-2.1216,-2.1257,-2.1283,-2.1312,-2.1371,-2.1402,-2.1426,-2.1444,-2.1461,-2.1454,-2.1451,-2.1474,-2.1475,-2.1476,-2.1485,-2.1487,-2.1456,-2.1456,-2.1456,0,-2.0954,-2.1005,-2.1041,-2.1074,-2.11,-2.1132,-2.1161,-2.119,-2.1245,-2.1262,-2.1266,-2.1343,-2.1374,-2.1421,-2.1426,-2.1443,-2.1453,-2.1448,-2.1472,-2.1474,-2.1475,-2.1484,-2.1487,-2.1455,-2.1455,-2.1455,-2.1455,0,-2.0984,-2.1019,-2.1036,-2.1091,-2.1119,-2.1149,-2.1191,-2.1214,-2.1235,-2.1264,-2.1307,-2.1346,-2.1391,-2.1403,-2.1423,-2.1454,-2.1455,-2.1464,-2.147,-2.1475,-2.1484,-2.1488,-2.1454,-2.1454,-2.1454,-2.1454,0,0,-2.0965,-2.1043,-2.1048,-2.1075,-2.1131,-2.1159,-2.1192,-2.1237,-2.1257,-2.1295,-2.1325,-2.1375,-2.1386,-2.1412,-2.1436,-2.1455,-2.147,-2.1463,-2.1465,-2.1464,-2.1509,-2.1503,-2.1506,-2.1482,-2.1483,-2.1483,-2.1506,0,-2.0977,-2.1039,-2.1074,-2.1121,-2.1155,-2.1188,-2.1217,-2.1254,-2.1283,-2.1316,-2.1347,-2.1383,-2.1393,-2.141,-2.143,-2.1464,-2.148,-2.1463,-2.1511,-2.1512,-2.15,-2.151,-2.1503,-2.1523,-2.151,-2.151,-2.1511,0,-2.0999,-2.1039,-2.109,-2.1145,-2.1161,-2.1186,-2.1232,-2.1263,-2.1307,-2.1327,-2.1358,-2.1383,-2.1419,-2.1422,-2.1474,-2.1461,-2.1483,-2.1503,-2.1504,-2.1511,-2.1512,-2.1519,-2.153,-2.1533,-2.1516,-2.1516,-2.1515,0,-2.0983,-2.1049,-2.1089,-2.1111,-2.1175,-2.1193,-2.122,-2.1265,-2.1291,-2.133,-2.1348,-2.1391,-2.1415,-2.1448,-2.1483,-2.1481,-2.1533,-2.1537,-2.1551,-2.155,-2.1561,-2.156,-2.1577,-2.1572,-2.1572,-2.1572,-2.1572,0,-2.0994,-2.1024,-2.1083,-2.1108,-2.1143,-2.1184,-2.1218,-2.1248,-2.1287,-2.1319,-2.1349,-2.1378,-2.1423,-2.1457,-2.1485,-2.1525,-2.1535,-2.1553,-2.156,-2.1551,-2.1549,-2.1566,-2.1567,-2.1573,-2.1573,-2.1573,-2.1572,0,-2.0981,-2.1022,-2.1068,-2.1127,-2.1142,-2.1166,-2.1216,-2.1242,-2.1273,-2.1313,-2.1324,-2.1373,-2.1415,-2.1454,-2.151,-2.1529,-2.1571,-2.1579,-2.1556,-2.1561,-2.1573,-2.1572,-2.1603,-2.161,-2.1599,-2.1599,-2.1599,0,-2.0986,-2.101,-2.1073,-2.1097,-2.1125,-2.1162,-2.119,-2.1231,-2.1259,-2.1313,-2.1332,-2.1377,-2.1416,-2.1482,-2.1522,-2.1566,-2.1577,-2.1585,-2.1583,-2.1574,-2.1579,-2.1578,-2.1582,-2.1584,-2.1584,-2.1584,-2.1584,0,-2.099,-2.101,-2.1049,-2.1097,-2.1129,-2.1168,-2.1207,-2.1225,-2.1274,-2.1303,-2.1348,-2.1378,-2.1437,-2.1482,-2.1531,-2.156,-2.1581,-2.1584,-2.159,-2.1582,-2.1568,-2.1578,-2.1557,-2.1583,-2.1584,-2.1584,-2.1584,-2.1584,-2.0988,-2.1013,-2.1061,-2.1105,-2.1139,-2.1176,-2.1204,-2.124,-2.1279,-2.1331,-2.1353,-2.1399,-2.1445,-2.1513,-2.1542,-2.1579,-2.1583,-2.1591,-2.1593,-2.1595,-2.1594,-2.1562,-2.1587,-2.1587,-2.1588,-2.1588,-2.1588,0,-2.0996,-2.103,-2.1069,-2.1125,-2.116,-2.1178,-2.1223,-2.1251,-2.1292,-2.1333,-2.1372,-2.1425,-2.147,-2.1514,-2.1561,-2.1583,-2.1594,-2.1594,-2.1593,-2.16,-2.1587,-2.1578,-2.1584,-2.1584,-2.1584,-2.1584,-2.1584,-2.1584,-2.1004,-2.1048,-2.1074,-2.1136,-2.1169,-2.1216,-2.1241,-2.1276,-2.1309,-2.1368,-2.1406,-2.1435,-2.1479,-2.153,-2.1572,-2.1584,-2.1601,-2.1599,-2.1614,-2.1601,-2.16,-2.16,-2.1592,-2.1602,-2.1602,-2.1624,-2.1625,-2.1625]}]]